Flag for Canada Weather past 2 weeks in Belleville, Ontario, Canada

Now
34 °F

Passing clouds.


Feels Like: 30 °F
Forecast: 22 / 32 °F
Wind: 5 mph from Southeast

Location: Trenton

Current Time: Dec 21, 2014 at 2:26:40 PM

Latest Report: Dec 21, 2014 at 2:00 PM


Visibility: 15 mi

Pressure: 30.31 "Hg

Humidity: 65%

Dew point: 23 °F

Location of BellevilleLocation

Historic Weather in Belleville — Graph

°F

Belleville temperature yesterday

Maximum temperature yesterday: 28 °F (at 3:00 PM)
Minimum temperature yesterday: 12 °F (at 7:00 AM)
Average temperature yesterday: 20 °F

Past Weeks' High & Low Weather Summary

 TemperatureHumidityPressure
High41 °F (Dec 17, 11:00 AM)100% (Dec 11, 3:00 AM)30.81 "Hg (Dec 11, 3:00 AM)
Low12 °F (Dec 20, 7:00 AM)39% (Dec 7, 3:00 PM)29.71 "Hg (Dec 11, 4:00 AM)
Average29 °F81%30.12 "Hg
* Reported Dec 6 1:00 PM — Dec 21 1:00 PM, Belleville, Weather by CustomWeather, © 2014

Note: Actual official high and low records may vary slightly from our data, if they occured in-between our weather recording intervals... More about our weather records

Advertising

Belleville weather history for previous 24 hours

 ConditionsComfort  
Time TempWeatherWind HumidityBarometerVisibility
1:00 PM
Dec 21
34 °FPassing clouds.5 mph60%30.32 "Hg15 mi
12:00 PM32 °FScattered clouds.3 mph64%30.33 "Hg15 mi
11:00 AM27 °FPartly sunny.5 mph74%30.36 "Hg15 mi
10:00 AM25 °FPartly sunny.3 mph80%30.36 "Hg15 mi
9:00 AM25 °FPartly sunny.5 mph80%30.35 "Hg15 mi
8:00 AM23 °FPartly sunny.2 mph86%30.34 "Hg15 mi
7:00 AM21 °FPassing clouds.2 mph93%30.34 "Hg15 mi
6:00 AM21 °FPassing clouds.5 mph93%30.32 "Hg15 mi
5:00 AM23 °FPassing clouds.3 mph86%30.32 "Hg15 mi
4:00 AM23 °FPassing clouds.3 mph86%30.32 "Hg15 mi
3:00 AM23 °FOvercast.3 mph86%30.32 "Hg15 mi
2:00 AM23 °FMostly cloudy.5 mph86%30.31 "Hg15 mi
1:00 AM23 °FPassing clouds.5 mph86%30.31 "Hg15 mi
12:00 AM23 °FPassing clouds.3 mph86%30.32 "Hg15 mi
11:00 PM
Dec 20
23 °FPassing clouds.5 mph86%30.32 "Hg15 mi
10:00 PM21 °FPassing clouds.2 mph93%30.32 "Hg15 mi
9:00 PM16 °FPassing clouds.2 mph93%30.32 "Hg15 mi
8:00 PM18 °FPassing clouds.2 mph86%30.32 "Hg15 mi
7:00 PM19 °FPassing clouds.2 mph86%30.33 "Hg15 mi
6:00 PM23 °FPassing clouds.No wind74%30.32 "Hg15 mi
5:00 PM25 °FPassing clouds.2 mph69%30.30 "Hg15 mi
4:00 PM27 °FScattered clouds.3 mph64%30.29 "Hg15 mi
3:00 PM28 °FBroken clouds.5 mph59%30.28 "Hg15 mi
2:00 PM27 °FPartly sunny.3 mph64%30.29 "Hg15 mi
Weather by CustomWeather, © 2014

See weather overviewHow to use our weather pages